Current weather by "City, St" or "zip code"  
 

Current Conditions: Malden Municipal Airport, MO

Fair


68.0 F

Last Updated on Oct 21 2021, 11:55 am CDT
Humidity: 40%
Wind Speed: W 13.8 mph
Barometer 30.11 in
Dewpoint: 42.8 F
Visibility: 10.00 mi
Precip: --
Heat Index: NA
Wind Chill: NA
Current conditions at:

Malden Municipal Airport, MO (KMAW)

Lat: 36.6005 Lon: 89.9922

Local Radar Image active severe weather and emergency alerts image image weather storm and storm spotter reports image weather observation monitoring service image
Local
Radar
Active
Alerts
Storm Reports Obs
Monitoring

Sign-up For Email & Text Message Weather Alert Notification Services



Advertise Here

Observation History for Malden Municipal Airport, MO


Time Wind
(mph)
Vis
(mi)
Weather Precip (in) Temperature (F) Relative
Humidity
Wind
Chill
(F)
Heat
Index
(F)
Pressure
Air Dwpt altimeter
(in)
sea level
(mb)
Rmks
11:55 am CDT W 13.8 10.00 Fair -- 68.0 42.8 40% NA NA 30.11 M
10:55 am CDT W 16.1 10.00 Fair -- 66.0 44.6 46% NA NA 30.11 M
9:55 am CDT W 16.1 G 19.6 10.00 Fair -- 64.0 44.6 49% NA NA 30.11 M
8:55 am CDT W 10.4 10.00 Fair -- 63.0 51.8 68% 62 NA 30.11 M
7:55 am CDT W 4.6 10.00 Fair -- 61.0 51.8 72% 61 NA 30.09 M
6:55 am CDT W 6.9 10.00 Fair -- 63.0 59.0 88% 63 NA 30.07 M
5:55 am CDT W 5.8 10.00 Fair -- 63.0 59.0 88% 63 NA 30.05 M
4:55 am CDT W 8.1 10.00 Fair -- 64.0 59.0 83% NA NA 30.04 M
3:55 am CDT S 4.6 10.00 Partly Cloudy -- 63.0 59.0 88% 64 NA 30.03 M
2:55 am CDT SW 6.9 10.00 Partly Cloudy -- 64.0 59.0 83% NA NA 30.04 M
1:55 am CDT S 8.1 10.00 Partly Cloudy -- 64.0 60.8 88% NA NA 30.04 M
12:35 am CDT S 6.9 10.00 Mostly Cloudy -- 64.0 59.0 83% NA NA 30.06 M
11:55 pm CDT S 8.1 10.00 Mostly Cloudy -- 64.0 59.0 83% NA NA 30.06 M
10:55 pm CDT S 9.2 10.00 Fair -- 64.0 59.0 83% NA NA 30.07 M
9:55 pm CDT S 8.1 10.00 Fair -- 64.0 57.2 78% NA NA 30.07 M
8:55 pm CDT S 5.8 10.00 Fair -- 64.0 55.4 73% NA NA 30.07 M
7:55 pm CDT S 6.9 10.00 Fair -- 66.0 53.6 64% NA NA 30.06 M
6:55 pm CDT SW 6.9 10.00 Fair -- 70.0 53.6 57% NA NA 30.05 M
5:55 pm CDT S 6.9 10.00 Fair -- 75.0 51.8 44% NA NA 30.05 M
4:55 pm CDT S 11.5 10.00 Fair -- 79.0 51.8 39% NA NA 30.06 M
3:55 pm CDT SW 12.7 G 16.1 10.00 Fair -- 79.0 53.6 42% NA NA 30.07 M
2:55 pm CDT SW 10.4 10.00 Fair -- 79.0 53.6 42% NA NA 30.09 M
1:55 pm CDT SW 12.7 10.00 Fair -- 77.0 55.4 47% NA NA 30.12 M
12:55 pm CDT SW 13.8 G 18.4 10.00 Fair -- 77.0 55.4 47% NA NA 30.15 M

Regional Weather Observation


Malden Municipal Airport, MO (KMAW)

Fair
68.0 F

Kennett - Kennett Memorial Airport, MO (KTKX)

Fair
70.0 F

Corning Municipal Airport, AR (K4M9)

Fair with Haze
68.0 F

Sikeston Memorial Municipal Airport, MO (KSIK)

Fair
66.0 F

Walnut Ridge Regional Airport, AR (KARG)

Fair
67.0 F

Cape Girardeau, Cape Girardeau Regional Airport, MO (KCGI)

Fair
67.0 F

Advertise Here


Advertise Here